�������l�o���
Date,Time,MP-1(��Sv/h),MP-2(��Sv/h),MP-3(��Sv/h),MP-4(��Sv/h),MP-5(��Sv/h),MP-6(��Sv/h),MP-7(��Sv/h),MP-8(��Sv/h),����,����(m/s),���J
2018/12/27,00:00,0.782,1.161,0.820,1.497,1.061,0.458,0.800,0.758,���k��,8.1,��
2018/12/27,00:10,0.784,1.163,0.822,1.498,1.062,0.455,0.800,0.759,���k��,7.6,��
2018/12/27,00:20,0.783,1.163,0.822,1.494,1.062,0.455,0.800,0.757,�k��,6.8,��
2018/12/27,00:30,0.784,1.162,0.820,1.497,1.059,0.456,0.801,0.756,�k��,6.6,��
2018/12/27,00:40,0.782,1.164,0.819,1.494,1.061,0.455,0.800,0.757,�k��,4.9,��
2018/12/27,00:50,0.783,1.161,0.820,1.494,1.060,0.455,0.800,0.759,�k��,4.0,��
2018/12/27,01:00,0.783,1.162,0.820,1.497,1.061,0.454,0.799,0.758,�k��,5.5,��
2018/12/27,01:10,0.782,1.163,0.821,1.493,1.063,0.454,0.801,0.756,�k��,5.1,��
2018/12/27,01:20,0.783,1.160,0.821,1.497,1.059,0.455,0.801,0.758,���k��,5.5,��
2018/12/27,01:30,0.782,1.165,0.820,1.494,1.062,0.453,0.801,0.757,���k��,8.3,��
2018/12/27,01:40,0.782,1.162,0.821,1.495,1.062,0.456,0.799,0.756,�k��,10.3,��
2018/12/27,01:50,0.786,1.162,0.820,1.496,1.062,0.456,0.800,0.758,�k��,11.3,��
2018/12/27,02:00,0.784,1.161,0.821,1.497,1.061,0.453,0.799,0.758,���k��,12.1,��
2018/12/27,02:10,0.782,1.161,0.821,1.495,1.064,0.455,0.797,0.756,�k��,13.0,��
2018/12/27,02:20,0.783,1.162,0.820,1.497,1.061,0.455,0.798,0.757,�k��,10.2,��
2018/12/27,02:30,0.784,1.161,0.818,1.499,1.061,0.455,0.799,0.759,�k��,8.5,��
2018/12/27,02:40,0.782,1.163,0.822,1.496,1.059,0.455,0.799,0.758,�k��,4.7,��
2018/12/27,02:50,0.782,1.162,0.822,1.496,1.062,0.455,0.802,0.758,�k��,4.9,��
2018/12/27,03:00,0.782,1.160,0.819,1.496,1.062,0.455,0.801,0.758,�k��,6.0,��
2018/12/27,03:10,0.781,1.164,0.821,1.496,1.062,0.455,0.801,0.759,�k��,6.8,��
2018/12/27,03:20,0.782,1.163,0.820,1.498,1.062,0.454,0.802,0.759,�k��,8.6,��
2018/12/27,03:30,0.783,1.162,0.821,1.494,1.059,0.454,0.802,0.757,�k��,11.3,��
2018/12/27,03:40,0.782,1.162,0.819,1.494,1.063,0.454,0.801,0.758,�k��,14.4,��
2018/12/27,03:50,0.784,1.164,0.818,1.497,1.061,0.454,0.802,0.759,�k��,14.2,��
2018/12/27,04:00,0.782,1.163,0.819,1.498,1.061,0.455,0.799,0.757,�k��,13.6,��
2018/12/27,04:10,0.785,1.161,0.819,1.499,1.062,0.453,0.800,0.759,�k��,12.7,��
2018/12/27,04:20,0.783,1.164,0.820,1.495,1.061,0.456,0.802,0.758,�k��,10.0,��
2018/12/27,04:30,0.782,1.165,0.819,1.497,1.062,0.455,0.801,0.759,�k��,9.0,��
2018/12/27,04:40,0.782,1.165,0.821,1.497,1.060,0.454,0.802,0.757,�k�k��,8.2,��
2018/12/27,04:50,0.782,1.161,0.821,1.499,1.060,0.454,0.802,0.756,�k�k��,8.0,��
2018/12/27,05:00,0.781,1.162,0.821,1.496,1.060,0.455,0.803,0.758,�k�k��,7.7,��
2018/12/27,05:10,0.783,1.163,0.821,1.496,1.061,0.453,0.802,0.758,�k�k��,6.4,��
2018/12/27,05:20,0.781,1.165,0.821,1.495,1.061,0.453,0.799,0.758,�k�k��,6.5,��
2018/12/27,05:30,0.782,1.162,0.822,1.498,1.061,0.455,0.803,0.758,�k�k��,6.4,��
2018/12/27,05:40,0.781,1.163,0.820,1.496,1.059,0.453,0.801,0.758,�k�k��,7.2,��
2018/12/27,05:50,0.780,1.164,0.822,1.495,1.063,0.454,0.800,0.758,�k�k��,6.3,��
2018/12/27,06:00,0.781,1.166,0.821,1.496,1.061,0.453,0.800,0.757,�k�k��,5.7,��
2018/12/27,06:10,0.780,1.162,0.819,1.497,1.061,0.453,0.802,0.757,�k�k��,5.9,��
2018/12/27,06:20,0.780,1.163,0.819,1.495,1.060,0.455,0.801,0.758,�k�k��,5.8,��
2018/12/27,06:30,0.782,1.161,0.821,1.496,1.060,0.453,0.801,0.758,�k�k��,6.3,��
2018/12/27,06:40,0.781,1.163,0.820,1.495,1.061,0.452,0.800,0.757,�k�k��,6.3,��
2018/12/27,06:50,0.781,1.162,0.821,1.495,1.059,0.453,0.800,0.757,�k��,6.0,��
2018/12/27,07:00,0.781,1.163,0.818,1.497,1.061,0.454,0.801,0.758,�k�k��,6.4,��
2018/12/27,07:10,0.780,1.164,0.817,1.497,1.061,0.454,0.800,0.757,�k�k��,6.5,��
2018/12/27,07:20,0.782,1.162,0.820,1.495,1.062,0.454,0.800,0.759,�k��,5.6,��
2018/12/27,07:30,0.781,1.161,0.819,1.497,1.060,0.452,0.801,0.759,�k�k��,5.5,��
2018/12/27,07:40,0.780,1.160,0.819,1.496,1.061,0.454,0.801,0.758,�k�k��,6.4,��
2018/12/27,07:50,0.783,1.160,0.820,1.494,1.060,0.453,0.801,0.757,�k�k��,6.9,��
2018/12/27,08:00,0.781,1.163,0.820,1.496,1.060,0.453,0.799,0.758,�k�k��,7.0,��
2018/12/27,08:10,0.781,1.162,0.820,1.495,1.062,0.452,0.801,0.758,�k�k��,7.0,��
2018/12/27,08:20,0.783,1.158,0.819,1.494,1.060,0.453,0.802,0.758,�k�k��,7.0,��
2018/12/27,08:30,0.781,1.160,0.818,1.495,1.063,0.452,0.802,0.758,�k�k��,7.2,��
2018/12/27,08:40,0.779,1.161,0.817,1.494,1.062,0.453,0.801,0.758,�k�k��,6.4,��
2018/12/27,08:50,0.782,1.162,0.819,1.497,1.060,0.452,0.799,0.759,�k�k��,5.2,��
2018/12/27,09:00,0.782,1.160,0.820,1.497,1.062,0.452,0.800,0.758,�k�k��,5.4,��
2018/12/27,09:10,0.781,1.158,0.819,1.499,1.061,0.453,0.800,0.758,�k�k��,5.4,��
2018/12/27,09:20,0.783,1.160,0.820,1.497,1.063,0.453,0.798,0.756,�k�k��,4.8,��
2018/12/27,09:30,0.783,1.159,0.818,1.494,1.061,0.453,0.798,0.758,�k,5.2,��
2018/12/27,09:40,0.782,1.159,0.821,1.494,1.062,0.453,0.799,0.758,�k,5.2,��
2018/12/27,09:50,0.780,1.158,0.819,1.496,1.061,0.452,0.801,0.759,�k,5.5,��
2018/12/27,10:00,0.782,1.158,0.818,1.495,1.063,0.453,0.801,0.757,�k,5.1,��
2018/12/27,10:10,0.783,1.157,0.817,1.496,1.060,0.453,0.801,0.756,-,-,��
2018/12/27,10:20,0.783,1.159,0.819,1.495,1.063,0.452,0.799,0.759,-,-,��
2018/12/27,10:30,0.783,1.158,0.819,1.496,1.064,0.452,0.800,0.758,-,-,��
2018/12/27,10:40,0.780,1.159,0.819,1.495,1.063,0.451,0.799,0.757,-,-,��
2018/12/27,10:50,0.781,1.158,0.820,1.498,1.063,0.453,0.800,0.755,-,-,��
2018/12/27,11:00,0.782,1.161,0.819,1.495,1.062,0.454,0.800,0.758,-,-,��
2018/12/27,11:10,0.785,1.161,0.819,1.497,1.063,0.455,0.800,0.757,-,-,��
2018/12/27,11:20,0.784,1.160,0.820,1.495,1.063,0.453,0.799,0.760,-,-,��
2018/12/27,11:30,0.784,1.161,0.821,1.498,1.062,0.452,0.801,0.757,-,-,��
2018/12/27,11:40,0.783,1.160,0.821,1.494,1.061,0.452,0.800,0.758,-,-,��
2018/12/27,11:50,0.782,1.160,0.819,1.497,1.059,0.454,0.800,0.758,-,-,��
2018/12/27,12:00,0.782,1.163,0.818,1.495,1.055,0.453,0.799,0.758,-,-,��
2018/12/27,12:10,0.784,1.163,0.820,1.494,1.055,0.452,0.800,0.758,-,-,��
2018/12/27,12:20,0.783,1.162,0.818,1.497,1.063,0.453,0.800,0.759,-,-,��
2018/12/27,12:30,0.782,1.161,0.820,1.498,1.063,0.453,0.801,0.759,-,-,��
2018/12/27,12:40,0.784,1.160,0.820,1.496,1.064,0.453,0.800,0.759,-,-,��
2018/12/27,12:50,0.782,1.162,0.822,1.496,1.063,0.453,0.801,0.758,-,-,��
2018/12/27,13:00,0.783,1.163,0.821,1.495,1.064,0.453,0.799,0.759,-,-,��
2018/12/27,13:10,0.783,1.161,0.819,1.498,1.064,0.453,0.798,0.757,-,-,��
2018/12/27,13:20,0.783,1.163,0.819,1.494,1.064,0.453,0.800,0.758,-,-,��
2018/12/27,13:30,0.783,1.163,0.821,1.498,1.063,0.455,0.799,0.757,-,-,��
2018/12/27,13:40,0.784,1.164,0.824,1.497,1.063,0.452,0.801,0.758,-,-,��
2018/12/27,13:50,0.784,1.164,0.821,1.497,1.064,0.454,0.800,0.757,-,-,��
2018/12/27,14:00,0.784,1.167,0.821,1.495,1.065,0.454,0.800,0.758,-,-,��
2018/12/27,14:10,0.786,1.168,0.822,1.496,1.063,0.454,0.798,0.759,-,-,��
2018/12/27,14:20,0.785,1.165,0.822,1.497,1.065,0.455,0.801,0.758,-,-,��
2018/12/27,14:30,0.786,1.165,0.819,1.498,1.064,0.453,0.800,0.759,-,-,��
2018/12/27,14:40,0.785,1.166,0.821,1.498,1.064,0.455,0.802,0.758,�k��,5.9,��
2018/12/27,14:50,0.783,1.165,0.820,1.498,1.065,0.455,0.802,0.760,�k��,6.6,��
2018/12/27,15:00,0.783,1.161,0.820,1.497,1.063,0.454,0.802,0.760,�k�k��,11.0,��
2018/12/27,15:10,0.783,1.165,0.821,1.495,1.066,0.453,0.803,0.758,�k�k��,8.2,��
2018/12/27,15:20,0.784,1.164,0.822,1.497,1.056,0.453,0.803,0.757,�k�k��,4.6,��
2018/12/27,15:30,0.782,1.166,0.820,1.497,1.063,0.452,0.804,0.758,�k�k��,5.9,��
2018/12/27,15:40,0.783,1.168,0.822,1.495,1.063,0.454,0.804,0.759,�k�k��,4.3,��
2018/12/27,15:50,0.783,1.167,0.820,1.496,1.063,0.452,0.802,0.757,�k��,5.0,��
2018/12/27,16:00,0.783,1.166,0.821,1.497,1.061,0.454,0.801,0.758,�k�k��,6.0,��
2018/12/27,16:10,0.783,1.169,0.823,1.493,1.064,0.453,0.802,0.759,�k�k��,3.6,��
2018/12/27,16:20,0.783,1.166,0.819,1.498,1.062,0.453,0.804,0.758,�k�k��,5.2,��
2018/12/27,16:30,0.783,1.166,0.822,1.497,1.063,0.454,0.800,0.758,�k�k��,5.4,��
2018/12/27,16:40,0.782,1.169,0.820,1.499,1.062,0.453,0.801,0.757,�k�k��,5.1,��
2018/12/27,16:50,0.783,1.168,0.822,1.497,1.062,0.452,0.801,0.756,�k�k��,4.7,��
2018/12/27,17:00,0.782,1.167,0.819,1.497,1.063,0.453,0.801,0.758,�k��,4.6,��
2018/12/27,17:10,0.782,1.167,0.820,1.497,1.063,0.453,0.800,0.756,�k�k��,5.5,��
2018/12/27,17:20,0.784,1.166,0.821,1.497,1.063,0.453,0.801,0.758,�k�k��,6.3,��
2018/12/27,17:30,0.783,1.166,0.821,1.497,1.062,0.454,0.800,0.756,�k�k��,6.9,��
2018/12/27,17:40,0.781,1.169,0.819,1.495,1.063,0.454,0.800,0.757,�k�k��,6.3,��
2018/12/27,17:50,0.782,1.168,0.821,1.496,1.066,0.452,0.801,0.757,�k�k��,4.7,��
2018/12/27,18:00,0.781,1.165,0.821,1.498,1.063,0.453,0.799,0.758,�k,3.4,��
2018/12/27,18:10,0.782,1.167,0.821,1.497,1.062,0.452,0.801,0.758,�k�k��,3.6,��
2018/12/27,18:20,0.783,1.166,0.819,1.497,1.062,0.454,0.800,0.758,�k�k��,2.9,��
2018/12/27,18:30,0.781,1.167,0.820,1.494,1.065,0.456,0.797,0.757,�k��,3.8,��
2018/12/27,18:40,0.783,1.166,0.820,1.498,1.063,0.453,0.800,0.756,�k��,4.4,��
2018/12/27,18:50,0.780,1.165,0.823,1.495,1.062,0.452,0.801,0.756,���k��,4.8,��
2018/12/27,19:00,0.783,1.168,0.822,1.497,1.062,0.453,0.800,0.758,���k��,5.2,��
2018/12/27,19:10,0.781,1.165,0.820,1.496,1.063,0.454,0.801,0.757,���k��,5.6,��
2018/12/27,19:20,0.781,1.168,0.822,1.498,1.064,0.452,0.802,0.758,���k��,5.8,��
2018/12/27,19:30,0.781,1.170,0.822,1.495,1.062,0.454,0.801,0.758,���k��,6.1,��
2018/12/27,19:40,0.781,1.165,0.820,1.496,1.063,0.453,0.799,0.757,�k��,4.1,��
2018/12/27,19:50,0.782,1.168,0.820,1.497,1.065,0.453,0.803,0.758,�k�k��,2.6,��
2018/12/27,20:00,0.781,1.165,0.819,1.494,1.062,0.453,0.800,0.759,�k�k��,4.3,��
2018/12/27,20:10,0.781,1.165,0.819,1.497,1.064,0.452,0.801,0.757,�k�k��,4.8,��
2018/12/27,20:20,0.780,1.167,0.821,1.493,1.063,0.453,0.799,0.757,�k�k��,5.2,��
2018/12/27,20:30,0.781,1.167,0.820,1.498,1.064,0.452,0.799,0.756,�k�k��,6.0,��
2018/12/27,20:40,0.779,1.166,0.821,1.496,1.063,0.453,0.799,0.757,�k��,7.5,��
2018/12/27,20:50,0.781,1.166,0.821,1.498,1.062,0.454,0.798,0.758,�k��,8.1,��
2018/12/27,21:00,0.780,1.167,0.820,1.496,1.060,0.453,0.799,0.757,�k�k��,7.7,��
2018/12/27,21:10,0.782,1.164,0.820,1.497,1.061,0.453,0.801,0.757,�k�k��,8.7,��
2018/12/27,21:20,0.780,1.166,0.818,1.496,1.062,0.451,0.801,0.758,�k�k��,8.1,��
2018/12/27,21:30,0.782,1.163,0.816,1.498,1.063,0.450,0.801,0.758,�k�k��,9.1,��
2018/12/27,21:40,0.780,1.164,0.819,1.496,1.061,0.450,0.799,0.757,�k�k��,9.2,��
2018/12/27,21:50,0.779,1.165,0.818,1.494,1.061,0.449,0.799,0.756,�k�k��,9.7,��
2018/12/27,22:00,0.782,1.165,0.817,1.495,1.061,0.449,0.799,0.758,�k��,11.4,��
2018/12/27,22:10,0.780,1.164,0.818,1.498,1.062,0.451,0.800,0.756,�k��,9.7,��
2018/12/27,22:20,0.779,1.162,0.819,1.496,1.062,0.450,0.799,0.759,�k�k��,9.8,��
2018/12/27,22:30,0.781,1.163,0.818,1.497,1.059,0.451,0.798,0.756,�k��,9.1,��
2018/12/27,22:40,0.780,1.165,0.818,1.497,1.061,0.450,0.798,0.758,�k��,9.3,��
2018/12/27,22:50,0.779,1.165,0.820,1.494,1.061,0.449,0.800,0.757,�k��,8.3,��
2018/12/27,23:00,0.780,1.163,0.817,1.497,1.060,0.450,0.800,0.759,�k��,8.8,��
2018/12/27,23:10,0.782,1.162,0.817,1.497,1.063,0.451,0.801,0.757,�k��,8.4,��
2018/12/27,23:20,0.780,1.164,0.816,1.497,1.061,0.451,0.800,0.757,�k��,10.8,��
2018/12/27,23:30,0.779,1.164,0.817,1.496,1.061,0.451,0.801,0.759,�k��,10.2,��
2018/12/27,23:40,0.779,1.163,0.818,1.497,1.063,0.450,0.799,0.756,�k��,9.7,��
2018/12/27,23:50,0.780,1.164,0.817,1.494,1.061,0.450,0.798,0.756,�k��,10.5,��
